Flag for Canada Weather past 2 weeks in Pictou County, Nova Scotia, Canada

Now
32 °F

Chilly.


Feels Like: 23 °F
Forecast: 31 / 34 °F
Wind: 10 mph from North

Location: Caribou Point

Current Time: Dec 21, 2014 at 10:41:09 AM

Latest Report: Dec 21, 2014 at 10:00 AM


Visibility: N/A

Pressure: 30.38 "Hg

Humidity: 78%

Dew point: 26 °F

Location of Pictou CountyLocation

Historic Weather in Pictou County — Graph

°F

Pictou County temperature yesterday

Maximum temperature yesterday: 36 °F (at 10:00 AM)
Minimum temperature yesterday: 31 °F (at 3:00 AM)
Average temperature yesterday: 34 °F

Past Weeks' High & Low Weather Summary

 TemperatureHumidityPressure
High48 °F (Dec 13, 12:00 AM)100% (Dec 15, 6:00 AM)30.80 "Hg (Dec 15, 6:00 AM)
Low19 °F (Dec 8, 1:00 AM)69% (Dec 8, 4:00 AM)29.36 "Hg (Dec 18, 9:00 AM)
Average34 °F87%30.07 "Hg
* Reported Dec 6 9:00 AM — Dec 21 9:00 AM, Pictou County, Weather by CustomWeather, © 2014

Note: Actual official high and low records may vary slightly from our data, if they occured in-between our weather recording intervals... More about our weather records

Advertising

Pictou County weather history for previous 24 hours

 ConditionsComfort  
Time TempWeatherWind HumidityBarometerVisibility
9:00 AM
Dec 21
32 °FChilly.12 mph78%30.37 "HgN/A
8:00 AM32 °FChilly.15 mph79%30.36 "HgN/A
7:00 AM32 °FChilly.16 mph82%30.34 "HgN/A
6:00 AM31 °FChilly.15 mph83%30.34 "HgN/A
5:00 AM31 °FChilly.15 mph87%30.33 "HgN/A
4:00 AM33 °FChilly.10 mph79%30.33 "HgN/A
3:00 AM33 °FChilly.12 mph80%30.32 "HgN/A
2:00 AM33 °FChilly.8 mph75%30.31 "HgN/A
1:00 AM33 °FChilly.9 mph82%30.29 "HgN/A
12:00 AM34 °FChilly.12 mph76%30.30 "HgN/A
11:00 PM
Dec 20
33 °FChilly.13 mph80%30.31 "HgN/A
10:00 PM33 °FChilly.14 mph78%30.31 "HgN/A
9:00 PM33 °FChilly.14 mph81%30.31 "HgN/A
8:00 PM34 °FChilly.15 mph84%30.30 "HgN/A
7:00 PM34 °FChilly.18 mph80%30.29 "HgN/A
6:00 PM34 °FChilly.15 mph84%30.28 "HgN/A
5:00 PM34 °FChilly.17 mph79%30.27 "HgN/A
4:00 PM34 °FChilly.18 mph85%30.25 "HgN/A
3:00 PM34 °FChilly.16 mph84%30.23 "HgN/A
2:00 PM35 °FChilly.17 mph80%30.21 "HgN/A
1:00 PM35 °FChilly.20 mph81%30.20 "HgN/A
12:00 PM35 °FChilly.21 mph81%30.20 "HgN/A
11:00 AM35 °FChilly.22 mph83%30.21 "HgN/A
10:00 AM36 °FChilly.20 mph80%30.20 "HgN/A
Weather by CustomWeather, © 2014

See weather overviewHow to use our weather pages